RH
43 34 31 28 28 30 29 30 30 28 26 24 20 23 16 21 21 25 33 40 44 45 43 42 35 29 26 22 17 11 11 12 17 20 20 20 22 29 31 31 29 19 15
44 33 29 27 27 28 29 29 27 24 23 22 18 18 16 15 14 16 22 27 29 28 26 25 23 18 18 17 14 14 16 23 24 23 23 26 31 33 33 32 28 23 21
43 39 31 28 30 29 27 24 22 22 20 20 19 19 20 17 14 11 9 10 10 11 14 16 17 19 18 16 15 19 22 25 25 26 31 30 32 36 35 36 29 28 30
41 37 35 29 31 28 25 23 22 19 19 19 19 20 22 19 16 12 11 11 10 11 16 17 18 18 18 17 20 24 26 25 26 31 34 36 32 25 24 28 28 29 36
41 37 34 31 30 30 26 25 23 20 20 19 20 20 22 22 19 15 13 13 14 14 18 20 20 19 19 20 20 23 24 25 26 32 28 29 27 19 19 20 24 31 39
49 47 35 31 32 31 30 30 25 23 21 20 21 22 24 24 22 18 17 16 16 16 18 18 19 19 19 19 21 22 23 25 27 29 30 27 20 18 17 17 16 19 24
54 49 39 33 32 32 33 31 28 26 24 23 22 23 25 24 21 18 17 17 17 17 18 18 19 20 21 22 22 23 24 26 28 29 28 24 22 21 19 18 16 15 16
58 52 44 39 34 33 33 33 31 27 28 27 26 26 27 27 26 23 21 20 21 21 21 22 23 24 25 25 26 26 27 27 32 33 34 29 27 27 26 23 21 19 18
63 56 49 42 37 36 33 34 32 31 30 30 29 30 32 32 31 26 24 23 23 24 25 26 27 28 28 29 29 31 32 33 38 38 39 38 34 34 34 33 30 25 23
66 63 55 45 40 37 36 35 32 33 34 33 31 31 34 30 27 29 27 27 26 26 27 29 29 29 29 29 29 30 31 32 38 37 39 35 35 36 36 37 38 37 34
68 63 62 54 45 41 40 35 34 32 36 35 32 29 30 34 30 29 28 29 29 29 28 28 29 30 30 31 31 31 31 36 37 37 38 36 37 38 37 38 38 39 40
68 67 64 61 52 45 42 38 38 33 34 39 36 30 36 35 36 35 28 28 29 30 30 29 28 28 30 35 33 31 32 35 37 38 38 38 39 39 40 39 38 38 39
72 71 65 60 56 51 46 40 44 40 40 43 40 38 36 34 30 26 30 26 28 29 29 30 29 29 35 31 32 32 31 30 35 39 43 41 38 35 34 35 38 38 39
75 73 70 63 58 54 48 44 47 48 45 47 45 42 39 34 31 32 31 31 29 33 34 36 34 34 33 30 33 33 34 33 38 43 43 37 35 35 36 38 38 39 38
74 70 67 65 61 54 50 47 48 48 47 48 48 45 41 35 33 32 31 30 30 30 32 34 36 36 36 35 35 37 39 38 40 40 38 37 36 37 38 40 40 39 41
68 65 64 67 63 53 50 49 49 48 51 52 49 48 40 36 33 30 31 28 27 28 33 36 37 39 40 39 38 37 38 40 41 39 37 37 38 39 38 40 41 41 43
60 61 63 65 61 55 53 52 49 50 52 56 52 47 39 34 33 33 33 34 33 33 34 36 37 37 38 38 37 37 40 43 40 41 40 41 42 40 40 41 42 41 41
56 57 61 66 60 53 55 52 52 53 57 57 54 51 45 39 36 35 36 37 38 38 38 39 39 38 38 39 39 43 44 44 44 44 45 46 44 41 38 37 39 40 41
60 61 62 69 68 58 59 59 57 56 56 56 56 55 50 47 43 40 39 40 41 41 42 41 39 38 39 43 46 46 44 45 47 47 43 42 37 34 32 34 34 36 41
63 62 63 62 64 64 60 59 57 56 55 57 58 56 55 51 47 45 45 45 46 44 42 42 43 45 49 51 45 45 44 44 45 42 34 30 31 37 38 36 39 39 41
62 62 64 64 64 68 66 64 58 56 56 56 56 55 53 51 48 46 44 45 44 43 44 44 46 48 47 42 43 38 34 39 40 35 34 33 35 37 36 38 39 40 39
61 64 65 66 67 70 68 64 68 66 59 57 53 46 46 43 41 40 39 40 42 41 39 40 42 44 44 44 44 43 39 36 38 42 36 33 33 39 38 37 40 43 43
59 60 60 58 58 58 61 61 59 57 55 54 50 45 40 38 37 37 36 35 34 36 38 38 40 42 41 37 38 40 41 42 44 43 39 35 39 39 40 41 44 43 36
60 56 54 52 52 53 56 57 58 58 56 51 45 40 37 35 34 32 32 31 31 31 30 29 29 31 35 34 34 32 37 39 45 43 40 39 41 45 46 45 44 36 32
62 61 57 56 55 55 54 54 54 51 49 47 43 40 37 35 33 33 33 31 30 28 26 26 27 26 26 28 30 33 31 33 35 40 49 48 49 46 46 43 41 37 35
63 61 61 59 58 58 57 55 54 53 50 46 43 40 38 36 35 35 34 32 30 29 28 28 28 27 28 29 28 32 32 37 37 46 51 51 48 47 46 43 39 39 36